Biloxi, MS

9:44 PM CDT on July 28, 2016 (GMT -0500)
Keesler Air Force Base

Weather History for KBIX - November, 2014

Change the Weather History Date:

Monday, November 3, 2014

  Actual Average Record
Temperature  
Mean Temperature 58 °F -  
Max Temperature 71 °F 73 °F 85 °F (1950)
Min Temperature 45 °F 54 °F 28 °F (1966)
Degree Days  
Heating Degree Days 7    
Growing Degree Days 8 (Base 50)    
Moisture  
Dew Point 44 °F    
Average Humidity 61    
Maximum Humidity 81    
Minimum Humidity 41    
Precipitation  
Precipitation 0.00 in - - ()
Sea Level Pressure  
Sea Level Pressure 30.35 in    
Wind  
Wind Speed 6 mph (ENE)    
Max Wind Speed 13 mph    
Max Gust Speed -    
Visibility 10 miles    
Events      
Averages and records for this station are not official NWS values.
T = Trace of Precipitation, MM = Missing Value Source: NWS Daily Summary

Daily Weather History Graph

Daily Weather History Graph

Search for Another Location

Airport or City:

Trip Planner

Search our weather history database for the weather conditions in past years. The results will help you decide how hot, cold, wet, or windy it might be!

Date:

Astronomy

Nov. 03, 2014 Rise Set
Actual Time 6:11 AM CST 5:06 PM CST
Civil Twilight 5:46 AM CST 5:31 PM CST
Nautical Twilight 5:18 AM CST 5:59 PM CST
Astronomical Twilight 4:50 AM CST 6:27 PM CST
Moon 3:01 PM CST (11/3) 2:37 AM CST (11/3)
Length of Visible Light 11h 44m
Length of Day
10h 54m
Waxing Gibbous, 87% of the Moon is Illuminated
Nov 3
Waxing Gibbous
Nov 6
Full
Nov 14
Last Quarter
Nov 22
New
Nov 29
First Quarter

Hourly Weather History & Observations

Time (CST) Temp. Windchill Dew Point Humidity Pressure Visibility Wind Dir Wind Speed Gust Speed Precip Events Conditions
12:03 AM 46.4 °F - 35.6 °F 66% 30.34 in 6.0 mi NNE 2.3 mph - N/A   Haze
12:08 AM 46.4 °F - 35.6 °F 66% 30.34 in 8.0 mi NNE 2.3 mph - N/A   Clear
12:18 AM 48.2 °F - 33.8 °F 58% 30.34 in 10.0 mi NE 4.6 mph - N/A   Clear
12:58 AM 46.0 °F 44.8 °F 34.9 °F 65% 30.35 in 10.0 mi NE 3.5 mph - N/A   Clear
1:58 AM 46.0 °F - 34.2 °F 63% 30.34 in 10.0 mi North 2.3 mph - N/A   Clear
2:58 AM 45.5 °F 41.8 °F 33.1 °F 62% 30.34 in 10.0 mi ENE 6.9 mph - N/A   Clear
3:58 AM 46.2 °F 42.7 °F 32.2 °F 58% 30.34 in 10.0 mi ENE 6.9 mph - N/A   Clear
4:58 AM 46.9 °F - 33.6 °F 60% 30.34 in 10.0 mi East 8.1 mph - N/A   Clear
5:58 AM 47.8 °F - 33.6 °F 58% 30.36 in 10.0 mi ENE 6.9 mph - N/A   Clear
6:58 AM 48.4 °F - 36.3 °F 63% 30.39 in 10.0 mi North 3.5 mph - N/A   Clear
7:58 AM 52.0 °F - 35.8 °F 54% 30.40 in 10.0 mi NNE 4.6 mph - N/A   Clear
8:58 AM 59.9 °F - 36.3 °F 41% 30.41 in 10.0 mi NE 5.8 mph - N/A   Clear
9:58 AM 65.1 °F - 41.2 °F 42% 30.41 in 10.0 mi ENE 8.1 mph - N/A   Clear
10:58 AM 68.9 °F - 45.3 °F 43% 30.40 in 10.0 mi ENE 8.1 mph - N/A   Clear
11:58 AM 71.6 °F - 50.2 °F 47% 30.37 in 10.0 mi SSE 10.4 mph - N/A   Clear
12:58 PM 71.2 °F - 50.7 °F 48% 30.34 in 10.0 mi SE 11.5 mph - N/A   Clear
1:58 PM 70.5 °F - 50.4 °F 49% 30.34 in 10.0 mi SE 12.7 mph - N/A   Clear
2:58 PM 69.3 °F - 49.1 °F 49% 30.34 in 10.0 mi SE 8.1 mph - N/A   Clear
3:58 PM 68.0 °F - 49.1 °F 51% 30.34 in 10.0 mi East 9.2 mph - N/A   Clear
4:58 PM 65.7 °F - 53.1 °F 64% 30.33 in 10.0 mi East 5.8 mph - N/A   Clear
5:58 PM 63.0 °F - 54.5 °F 74% 30.34 in 10.0 mi East 5.8 mph - N/A   Clear
6:58 PM 61.3 °F - 53.4 °F 75% 30.34 in 10.0 mi ENE 5.8 mph - N/A   Clear
7:58 PM 60.6 °F - 53.4 °F 77% 30.34 in 10.0 mi East 9.2 mph - N/A   Clear
8:58 PM 60.3 °F - 53.1 °F 77% 30.34 in 10.0 mi East 9.2 mph - N/A   Clear
9:58 PM 59.7 °F - 52.7 °F 78% 30.33 in 10.0 mi East 9.2 mph - N/A   Clear
10:58 PM 59.4 °F - 53.1 °F 80% 30.32 in 10.0 mi East 8.1 mph - N/A   Clear
11:58 PM 59.0 °F - 53.1 °F 81% 30.31 in 10.0 mi East 6.9 mph - N/A   Partly Cloudy